CZ-11 DEB

Satellite information

Favourite Embed

Satellite Type and Status

DEBRISIN ORBIT

Key statistics

Satellite CZ-11 DEB at a glance.

Uptime

3322

Days in orbit

Revolutions

≈ 14.5

Per day

Orbit

SSO

Sun Synchronous Orbit

Inclination

98.4

Latest

Satellite identification and parameters

Extended collection of information and parameters for CZ-11 DEB.

Object identification

Identified? True

Debris? True

Object name: CZ-11 DEB

International designator: 2016-066F

Object number (NORAD): 41846

Object ID (CCSDS): 41846

Country: PEOPLES REPUBLIC OF CHINA (PRC)

Current information (Y/N): Y

RCS size: SMALL

Orbital parameters

Period: 99.091 minutes

Inclination: 98.4334 deg

SMA: 7093.306 km

Apoapsis: 935.552 km

Periapsis: 494.791 km

RAAN: 71.3303 deg

Eccentricy: 0.03106878

Argument of periapsis: 314.2359 deg

Mean anomaly: 43.3703 deg

Mean motion: 14.53214388 rev/day

Mean motion (dot): 0.00004319 rev/day2

B* drag term: 0.00055585444 1/REarth

Two-line elements (TLE)

Creation date: Dec. 14, 2025, 3:07 a.m.

Reference frame: TEME

Reference center: EARTH

Epoch: Dec. 13, 2025, 3:53 p.m. UTC

TLE line 0: 0 CZ-11 DEB

TLE line 1: 1 41846U 16066F 25347.66231532 .00004319 00000-0 55585-3 0 9999

TLE line 2: 2 41846 98.4334 71.3303 0310688 314.2359 43.3703 14.53214388478082

Live tracking on map

Real-time ground track for satellite CZ-11 DEB.

In-orbit conjunctions

A list of the most updated potential collisions computed for object CZ-11 DEB.

Target Orbit TCA Probability of collision Miss distance Type
SL-3 R/B LEO 2024-10-26 20:22:58 0.0001940493 361.0 (m) ROCKET BODY
SL-16 DEB LEO 2024-08-04 10:51:31 0.000160384 289.0 (m) DEBRIS

Associated space launch

XPNAV-1 (X-Ray Pulsar Navigation) is the first ever satellite to test the technology of spacecraft navigation by using signals from X-ray pulsars. It is launched along with the Xiaoxiang 1 cubsat and several other small satellites.

CZ-11 DEB was lifted into orbit during the mission ‘Long March 11 | Xiaoxiang-1, XPNAV-1 & 3 others.’, on board a Long March 11 space rocket.

The launch took place on Nov. 9, 2016, 11:42 p.m. from Launch Area 95A.

For more information about the launch, click the button.

Launch to space Long March 11 | Xiaoxiang-1, XPNAV-1 & 3 others.
Long March 11 | Xiaoxiang-1, XPNAV-1 & 3 others.

Agency: N/A

Status: Launch Successful

Launch date: Nov. 9, 2016, 11:42 p.m. UTC

Rocket: Long March 11

Launch pad: Launch Area 95A

Location: Jiuquan Satellite Launch Center, People's Republic of China

...

Latest news about this satellite

There are no fresh news available about this satellite. Check back as we update our databases every day.


Newsletter sign-up

Weekly statistics, charts and insights to help you stay on top of the space industry.